Погода в Краснофлотском

Россия / Воронежская область     50°04′02″N   41°14′14″E
темп.,
°C
ветер,
м/с
пор.,
м/с
влажн.,
%
обл.,
%
осадки,
мм/ч
давл.,
гПа
погр.,
м
21 апреля, ср
ср2100:00+10ю613947 0.7 1006598
03:00+9ю7128986 0.8 1007576
06:00+9ю81389100 0.3 1007757
09:00+10ююз71288100 0.5 1010981
12:00+10зюз7107464 0.1 1013981
15:00+13юз6961100 0.4 10141601
18:00+14зюз4856100 0.4 1015300
21:00+10зюз1168100 0.4 101810
22 апреля, чт
чт2200:00+10ю337341 0.1 101836
03:00+8ююз33865 0.1 101928
06:00+7ююз23895 0.0 102045
09:00+13зюз34615 0.0 1021676
12:00+16юз455051 0.6 10221803
15:00+15зюз2454100 0.7 1021424
18:00+15ссз1157100 0.0 102148
21:00+12ююв2268100 0.1 102247
23 апреля, пт
пт2300:00+11ю2274100 0.3 102233
03:00+9юв227976 0.4 102115
06:00+10юв228199 0.2 102128
09:00+14ю466645 1.2 1021520
12:00+16ююз45525 1.9 10201534
15:00+17зюз4445100 2.3 10182173
18:00+15юз116198 0.1 101819
21:00+13юз1165100 0.1 101711
24 апреля, сб
сб2400:00+11ююз226513 0.0 101619
03:00+10ююз3777100 0.0 1015201
06:00+9ю4979100 0.0 1014275
09:00+13ююз7105590 0.0 10131089
12:00+13зюз101265100 0.6 10131580
15:00+11зсз795645 0.9 10141621
18:00+11з48500 0.0 10141759
21:00+7в116111 0.0 101510
25 апреля, вс
вс2500:00+6з368094 0.1 1015212
03:00+6юз6108599 0.8 1015832
06:00+4зюз510885 0.1 1016650
09:00+7зюз796763 0.1 10161304
12:00+6з6873100 0.1 10181106
15:00+9з4848100 0.1 10171827
18:00+10з4647100 0.0 1017376
21:00+6зюз366193 0.0 1018102